Voltar ao catálogo

CHUANG XIN 20B

CX-20B

AtivoComunicaçõesLEO
NORAD 58426·PAYLOAD·🇨🇳 China

Lançado Nov 23, 2023 de Xichang Satellite Launch Center

Loading…

Próximas Passagens (próximas 24 horas)

TLE

AtualizadoSource: Space-Track

Época: Sep 14, 2026, 20:04 UTC

1 58426U 23181B   26257.83643274 -.00000085  00000-0  77046-4 0  9991
2 58426  49.9608 358.0338 0011900 183.2534 176.8268 13.41498621137772

Acompanhe CHUANG XIN 20B em tempo real com AllMySat

Download on the App Store